This demonstration page uses our WeatherBlox Daily Observations layout. Learn more.

Left ArrowRight Arrow

39.08367, -84.50855

Hourly Observations for July 3, 2015

Temp ( °F °C ) Dew Point ( °F °C ) Humidity (%) Winds ( mph kmh ) Pressure ( in mb ) Visibility ( mi km ) Precip ( " mm )
12:53 am 00:53 Cloudy 69 20.6 66 18.9 90 90 NE 5 7 29.89 1012 7 11 0.00 0.00
1:53 am 01:53 Cloudy with Mist and Fog 68 20 66 18.9 93 93 Calm 29.90 1012 6 10 0.00 0.00
2:53 am 02:53 Cloudy with Mist and Fog 67 19.4 66 18.9 97 97 NE 5 7 29.89 1012 6 10 0.00 0.00
3:53 am 03:53 Cloudy 67 19.4 65 18.3 93 93 Calm 29.88 1012 9 14 0.01 0.25
4:53 am 04:53 Cloudy 67 19.4 64 17.8 91 91 NNE 6 9 29.87 1011 10 16 0.00 0.00
5:53 am 05:53 Cloudy 66 18.9 64 17.8 93 93 NE 6 9 29.88 1012 10 16 0.00 0.00
6:53 am 06:53 Cloudy 66 18.9 63 17.2 90 90 NE 7 11 29.89 1012 9 14 0.00 0.00
7:53 am 07:53 Cloudy 67 19.4 63 17.2 87 87 NE 8 13 29.88 1012 10 16 0.00 0.03
8:05 am 08:05 Cloudy 67 19.4 63 17.2 87 87 NE 6 9 29.91 1013 10 16 0.00 0.00
8:23 am 08:23 Cloudy 67 19.4 63 17.2 87 87 ENE 5 7 29.91 1013 10 16 0.00 0.00
8:53 am 08:53 Cloudy 68 20 63 17.2 84 84 ENE 7 11 29.88 1012 10 16 0.00 0.00
9:53 am 09:53 Cloudy 69 20.6 63 17.2 81 81 VRB 6 9 29.88 1012 10 16 0.00 0.00
10:53 am 10:53 Cloudy 72 22.2 64 17.8 76 76 NNE 7 11 29.88 1012 10 16 0.00 0.00
11:11 am 11:11 Cloudy 73 22.8 65 18.3 76 76 N 6 9 29.88 1012 10 16 0.00 0.00
11:53 am 11:53 Mostly Cloudy 75 23.9 66 18.9 74 74 ENE 6 9 29.88 1012 9 14 0.00 0.00
12:27 pm 12:27 Cloudy with Light Rain 74 23.3 65 18.3 74 74 ENE 6 9 29.88 1012 10 16 0.00 0.03
12:53 pm 12:53 Mostly Cloudy 75 23.9 65 18.3 71 71 NE 7 11 29.88 1012 10 16 0.00 0.03
1:53 pm 13:53 Cloudy 75 23.9 65 18.3 71 71 NNE 6 9 29.87 1012 10 16 0.00 0.00
2:53 pm 14:53 Cloudy 75 23.9 66 18.9 74 74 NE 7 11 29.85 1011 10 16 0.00 0.00
3:53 pm 15:53 Cloudy 74 23.3 65 18.3 74 74 NNE 10 17 29.85 1011 10 16 0.00 0.00
4:53 pm 16:53 Cloudy with Light Rain 72 22.2 66 18.9 82 82 NE 7 11 29.85 1011 10 16 0.00 0.03
5:53 pm 17:53 Cloudy 73 22.8 65 18.3 76 76 NNE 7 11 29.85 1011 10 16 0.00 0.03
6:04 pm 18:04 Cloudy 73 22.8 65 18.3 76 76 NNE 7 11 29.88 1012 9 14 0.00 0.03
6:17 pm 18:17 Cloudy 73 22.8 65 18.3 76 76 NE 9 15 29.88 1012 10 16 0.00 0.03
6:53 pm 18:53 Mostly Cloudy 73 22.8 65 18.3 76 76 NE 8 13 29.85 1011 8 13 0.00 0.03
7:23 pm 19:23 Mostly Cloudy 72 22.2 65 18.3 79 79 E 7 11 29.88 1012 10 16 0.00 0.03
7:44 pm 19:44 Mostly Cloudy 72 22 64 18 78 78 ENE 5 7 29.88 1012 10 16 0.00 0.00
7:53 pm 19:53 Mostly Cloudy 72 22.2 65 18.3 79 79 E 6 9 29.86 1011 10 16 0.00 0.03
8:00 pm 20:00 Partly Cloudy 72 22 64 18 78 78 undefined N/A 29.88 1012 10 16 0.00 0.00
8:53 pm 20:53 Partly Cloudy 70 21.1 63 17.2 79 79 E 5 7 29.87 1012 10 16 0.00 0.03
9:00 pm 21:00 Cloudy 70 21 64 18 83 83 NE 5 7 29.88 1012 10 16 0.00 0.00
9:08 pm 21:08 Cloudy 70 21 63 17 78 78 ENE 6 9 29.88 1012 10 16 0.00 0.00
9:53 pm 21:53 Cloudy 70 21.1 64 17.8 82 82 Calm 29.88 1012 10 16 0.00 0.00
10:53 pm 22:53 Cloudy 69 20.6 64 17.8 84 84 Calm 29.89 1012 10 16 0.00 0.00
11:53 pm 23:53 Cloudy 69 20.6 63 17.2 81 81 NNE 3 6 29.89 1012 10 16 0.00 0.00

Powered by AerisWeather